Thuraya 3

operational
NORAD ID: 32404 Int'l Des: 2008-001 Owner: THUR Country: UAE
HEOCIRCULARGSO

Thuraya 3について

説明を読み込み中...

リアルタイム位置

3D地球を読み込み中...

次回通過

高度履歴

Altitude vs Time

uPlot chart will show altitude changes over time

軌道要素

1 32404U 08001A 26061.62807399 -.00000315 00000-0 00000-0 0 9991
2 32404 5.8095 35.5992 0002464 302.3742 147.0271 1.00271204 66429
Epoch: Mar 2, 2026 • Age: 32 hours

現在のステータス

高度 35778.1 km
速度 3.08 km/s
衛星直下点 -2.28°S, 98.62°E
打ち上げ日 Jan 15, 2008
運用期間 18.1 years
タイプ other

技術仕様

分類 Payload
質量 5180.00 kg
乾燥質量 4000.00 kg
総質量 5180.00 kg
長さ 12.20 m
直径 17.00 m
スパン 40.40 m
形状 Box + Dish + 2 Pan
製造者 BOES
バスタイプ HS-GEM
フェーズステータス In Orbit
所有者/国 THUR/UAE

大規模コンステレーション

Loading constellations...